Regional Weather Roundup
Issued by NWS

Home | Current Version | Previous Version | Text Only | Print | Product List | Glossary Off
Versions: 1 2 3 4 5 6 7 8 9 10 11 12 13 14 15 16 17 18 19 20 21 22 23 24 25 26 27 28 29 30 31 32 33 34 35 36 37 38 39 40 41 42 43 44 45 46 47 48 49 50

000
ASUS44 KMEG 281910
RWRTN
TENNESSEE HOURLY STATE WEATHER ROUNDUP
NATIONAL WEATHER SERVICE MEMPHIS TN
200 PM CDT THU MAY 28 2015

TNZ002-004-019-021-049-052-054-088>092-282000-
WEST TENNESSEE

CITY           SKY/WX    TMP DP  RH WIND       PRES   REMARKS
MEMPHIS INTL   PTSUNNY   83  67  58 SE5       30.14F
NWS MEMPHIS      N/A     80 N/A N/A MISG        N/A
JACKSON        CLOUDY    77  65  66 S5        30.17F
DYERSBURG      PTSUNNY   77  57  50 SE6       30.17F
PARIS          MOSUNNY   81  66  61 VRB5      30.17S
LEXINGTON      MOSUNNY   79  66  65 SW8       30.16F
$$

TNZ008-025-027-028-033-062-065-066-282000-
NORTH MIDDLE TENNESSEE

CITY           SKY/WX    TMP DP  RH WIND       PRES   REMARKS
NASHVILLE      PTSUNNY   82  63  52 CALM      30.18F
CLARKSVILLE    MOSUNNY   81  65  58 S6        30.16F
SMYRNA         MOSUNNY   81  64  55 SW6       30.18F
COOKEVILLE     MOSUNNY   81  66  61 S8        30.19F
CROSSVILLE     PTSUNNY   74  61  63 VRB3      30.24F
$$

TNZ061-075-076-078-094-096-097-282000-
SOUTH MIDDLE TENNESSEE

CITY           SKY/WX    TMP DP  RH WIND       PRES   REMARKS
FAYETTEVILLE     N/A    N/A N/A N/A MISG      30.18F
TULLAHOMA      MOSUNNY   79  63  57 VRB3      30.19F
WINCHESTER     SUNNY     79  66  65 SE7       30.18F
MCMINNVILLE    MOSUNNY   77  66  69 SE5       30.19F
COLUMBIA       PTSUNNY   81  66  61 S5        30.16F
SHELBYVILLE    MOSUNNY   81  66  61 SE7       30.18F
$$

TNZ017-018-042-046-047-282000-
NORTHEAST TENNESSEE

CITY           SKY/WX    TMP DP  RH WIND       PRES   REMARKS
TRI CITIES     PTSUNNY   86  58  38 N5        30.20F
ELIZABETHTON   MOCLDY    81  63  54 N5        30.20F
$$

TNZ012-013-036-069-073-074-282000-
CENTRAL EAST TENNESSEE

CITY           SKY/WX    TMP DP  RH WIND       PRES   REMARKS
KNOXVILLE      CLOUDY    77  65  66 W8        30.20F
OAK RIDGE      CLOUDY    81  66  60 CALM      30.21F
GATLINBURG       N/A     79  68  69 S13       30.20S
MORRISTOWN     PTCLDY    82  64  54 VRB3      30.21F
$$

TNZ083-085-099-282000-
SOUTHEAST TENNESSEE

CITY           SKY/WX    TMP DP  RH WIND       PRES   REMARKS
CHATTANOOGA    PTSUNNY   81  65  58 CALM      30.18F
$$

SKY/WX REPORTED AS FAIR MEANS FEW OR NO CLOUDS BELOW
12 THOUSAND FEET.




USA.gov is the U.S. government's official web portal to all federal, state and local government web resources and services.